Date String (YYYY-MM-DD hh:mm:ss) UTC,Instrument flags,absolute air pressure of the measurement (hPa),sample flow rate (lpm),inlet stack bypass flow (lpm),air temperature of the measurement (°C),ambient temperature measured by the external sensor (°C),aerosol sample conditioner tube jacket temperature (°C),OPC LED temperature (°C),internal box temperature (°C),relative humidity of the measurement (%),span deviation,mass concentration of particles derived from Lorenz-Mie calculation of OPC scattering (μg/m³),mass concentration of particles derived from Lorenz-Mie calculation of OPC scattering (μg/m³),mass concentration of particles derived from Lorenz-Mie calculation of OPC scattering (μg/m³)
DateTimeUTC,F1_M11,P_M11,Q1_M11,Q2_M11,T1_M11,T2_M11,T3_M11,T4_M11,T5_M11,U1_M11,ZSPAN_M11,X2_M11,X0_M11,X1_M11
2023-12-18 03:00:00,SystemResetWarning,0837.2,4.99,000.00,025.8,024.5,000.0,034.3,027.1,8.2,0000.0,0001.63,0005.72,0001.13
2023-12-18 03:01:00,SystemResetWarning,0837.2,5.00,000.00,025.8,024.5,000.0,034.3,027.1,8.2,0000.0,0001.61,0005.75,0001.12
2023-12-18 03:02:00,SystemResetWarning,0837.2,5.00,000.00,025.8,024.4,000.0,034.3,027.1,8.2,0000.0,0001.63,0006.36,0001.12
2023-12-18 03:03:00,SystemResetWarning,0837.2,5.00,000.00,025.7,024.4,000.0,034.2,027.0,8.3,0000.0,0001.65,0006.61,0001.11
2023-12-18 03:04:00,SystemResetWarning,0837.3,5.00,000.00,025.7,024.4,000.0,034.2,027.0,8.2,0000.0,0001.67,0006.63,0001.12
2023-12-18 03:05:00,SystemResetWarning,0837.3,5.00,000.00,025.7,024.3,000.0,034.2,027.0,8.3,0000.0,0001.71,0006.63,0001.13
2023-12-18 03:06:00,SystemResetWarning,0837.2,5.00,000.00,025.7,024.3,000.0,034.2,026.9,8.3,0000.0,0001.78,0007.65,0001.16
2023-12-18 03:07:00,SystemResetWarning,0837.2,5.00,000.00,025.6,024.3,000.0,034.2,026.9,8.3,0000.0,0001.79,0007.80,0001.19
2023-12-18 03:08:00,SystemResetWarning,0837.2,5.00,000.00,025.6,024.3,000.0,034.1,026.9,8.3,0000.0,0001.83,0007.18,0001.21
2023-12-18 03:09:00,SystemResetWarning,0837.2,5.00,000.00,025.6,024.3,000.0,034.1,026.9,8.3,0000.0,0001.88,0005.75,0001.23
2023-12-18 03:10:00,SystemResetWarning,0837.2,5.00,000.00,025.6,024.2,000.0,034.1,026.9,8.3,0000.0,0001.85,0006.40,0001.26
2023-12-18 03:11:00,SystemResetWarning,0837.2,5.00,000.00,025.6,024.2,000.0,034.1,026.8,8.3,0000.0,0001.85,0007.18,0001.29
2023-12-18 03:12:00,SystemResetWarning,0837.2,5.01,000.00,025.5,024.2,000.0,034.1,026.8,8.3,0000.0,0001.91,0007.77,0001.31
2023-12-18 03:13:00,SystemResetWarning,0837.3,5.01,000.00,025.5,024.2,000.0,034.0,026.8,8.3,0000.0,0001.95,0007.75,0001.34
2023-12-18 03:14:00,SystemResetWarning,0837.2,5.00,000.00,025.5,024.2,000.0,034.0,026.8,8.3,0000.0,0001.99,0008.20,0001.36
2023-12-18 03:15:00,SystemResetWarning,0837.2,5.00,000.00,025.5,024.2,000.0,034.0,026.8,8.3,0000.0,0002.01,0008.84,0001.38
2023-12-18 03:16:00,SystemResetWarning,0837.3,5.00,000.00,025.5,024.1,000.0,034.0,026.7,8.2,0000.0,0002.03,0008.91,0001.39
2023-12-18 03:17:00,SystemResetWarning,0837.2,5.00,000.00,025.4,024.1,000.0,034.0,026.7,8.2,0000.0,0002.01,0008.69,0001.39
2023-12-18 03:18:00,SystemResetWarning,0837.3,5.00,000.00,025.4,024.1,000.0,033.9,026.7,8.3,0000.0,0001.96,0008.34,0001.39
2023-12-18 03:19:00,SystemResetWarning,0837.2,5.00,000.00,025.4,024.1,000.0,033.9,026.7,8.3,0000.0,0001.97,0008.33,0001.39
2023-12-18 03:20:00,SystemResetWarning,0837.2,5.00,000.00,025.4,024.1,000.0,033.9,026.7,8.3,0000.0,0001.93,0008.77,0001.37
2023-12-18 03:21:00,SystemResetWarning,0837.2,5.00,000.00,025.4,024.1,000.0,033.9,026.7,8.3,0000.0,0001.91,0008.62,0001.35
2023-12-18 03:22:00,SystemResetWarning,0837.2,5.01,000.00,025.4,024.0,000.0,033.9,026.7,8.3,0000.0,0001.89,0008.09,0001.34
2023-12-18 03:23:00,SystemResetWarning,0837.2,5.01,000.00,025.3,024.0,000.0,033.9,026.6,8.3,0000.0,0001.87,0007.68,0001.33
2023-12-18 03:24:00,SystemResetWarning,0837.2,5.01,000.00,025.3,024.0,000.0,033.8,026.6,8.3,0000.0,0001.87,0007.47,0001.31
2023-12-18 03:25:00,SystemResetWarning,0837.2,4.99,000.00,025.3,024.0,000.0,033.8,026.6,8.3,0000.0,0001.86,0006.86,0001.30
2023-12-18 03:26:00,SystemResetWarning,0837.2,4.99,000.00,025.3,024.0,000.0,033.8,026.6,8.3,0000.0,0001.88,0005.42,0001.29
2023-12-18 03:27:00,SystemResetWarning,0837.2,5.00,000.00,025.3,023.9,000.0,033.8,026.6,8.3,0000.0,0001.85,0005.30,0001.28
2023-12-18 03:28:00,SystemResetWarning,0837.3,5.00,000.00,025.2,023.9,000.0,033.8,026.5,8.3,0000.0,0001.83,0004.99,0001.27
2023-12-18 03:29:00,SystemResetWarning,0837.2,5.01,000.00,025.2,023.9,000.0,033.7,026.5,8.3,0000.0,0001.85,0004.73,0001.25
2023-12-18 03:30:00,SystemResetWarning,0837.2,5.00,000.00,025.2,023.9,000.0,033.7,026.5,8.3,0000.0,0001.83,0004.80,0001.24
2023-12-18 03:31:00,SystemResetWarning,0837.2,5.00,000.00,025.2,023.9,000.0,033.7,026.4,8.3,0000.0,0001.84,0004.17,0001.25
2023-12-18 03:32:00,SystemResetWarning,0837.2,5.00,000.00,025.2,023.9,000.0,033.7,026.4,8.3,0000.0,0001.86,0004.78,0001.25
2023-12-18 03:33:00,SystemResetWarning,0837.2,4.99,000.00,025.1,023.8,000.0,033.7,026.4,8.3,0000.0,0001.86,0004.69,0001.26
2023-12-18 03:34:00,SystemResetWarning,0837.2,4.99,000.00,025.1,023.8,000.0,033.7,026.4,8.3,0000.0,0001.88,0004.66,0001.26
2023-12-18 03:35:00,SystemResetWarning,0837.2,5.01,000.00,025.1,023.8,000.0,033.6,026.4,8.3,0000.0,0001.86,0004.70,0001.25
2023-12-18 03:36:00,SystemResetWarning,0837.2,5.01,000.00,025.1,023.8,000.0,033.6,026.4,8.3,0000.0,0001.81,0004.58,0001.25
2023-12-18 03:37:00,SystemResetWarning,0837.2,5.00,000.00,025.1,023.8,000.0,033.6,026.4,8.4,0000.0,0001.76,0004.66,0001.24
2023-12-18 03:38:00,SystemResetWarning,0837.2,4.99,000.00,025.1,023.8,000.0,033.6,026.4,8.4,0000.0,0001.73,0005.58,0001.24
2023-12-18 03:39:00,SystemResetWarning,0837.2,4.99,000.00,025.0,023.8,000.0,033.6,026.4,8.4,0000.0,0001.72,0005.52,0001.24
2023-12-18 03:40:00,SystemResetWarning,0837.2,4.99,000.00,025.0,023.8,000.0,033.5,026.4,8.4,0000.0,0001.74,0005.54,0001.24
2023-12-18 03:41:00,SystemResetWarning,0837.2,5.00,000.00,025.0,023.8,000.0,033.5,026.4,8.4,0000.0,0001.74,0005.39,0001.24
2023-12-18 03:42:00,SystemResetWarning,0837.2,5.00,000.00,025.0,023.7,000.0,033.5,026.4,8.5,0000.0,0001.73,0005.42,0001.22
2023-12-18 03:43:00,SystemResetWarning,0837.2,5.01,000.00,025.0,023.7,000.0,033.5,026.3,8.4,0000.0,0001.75,0004.62,0001.22
2023-12-18 03:44:00,SystemResetWarning,0837.2,5.01,000.00,025.0,023.7,000.0,033.5,026.3,8.4,0000.0,0001.76,0004.52,0001.22
2023-12-18 03:45:00,SystemResetWarning,0837.2,5.00,000.00,025.0,023.7,000.0,033.5,026.3,8.4,0000.0,0001.77,0004.72,0001.21
2023-12-18 03:46:00,SystemResetWarning,0837.2,5.00,000.00,025.0,023.7,000.0,033.4,026.3,8.5,0000.0,0001.77,0004.69,0001.22
2023-12-18 03:47:00,SystemResetWarning,0837.2,5.00,000.00,025.0,023.7,000.0,033.4,026.3,8.4,0000.0,0001.81,0005.68,0001.22
2023-12-18 03:48:00,SystemResetWarning,0837.2,5.00,000.00,024.9,023.7,000.0,033.4,026.3,8.5,0000.0,0001.82,0005.82,0001.23
2023-12-18 03:49:00,SystemResetWarning,0837.2,5.00,000.00,024.9,023.6,000.0,033.4,026.2,8.5,0000.0,0001.87,0004.62,0001.24
2023-12-18 03:50:00,SystemResetWarning,0837.2,5.00,000.00,024.9,023.6,000.0,033.4,026.2,8.5,0000.0,0001.90,0004.74,0001.25
2023-12-18 03:51:00,SystemResetWarning,0837.2,5.00,000.00,024.9,023.6,000.0,033.4,026.2,8.5,0000.0,0001.83,0004.42,0001.25
2023-12-18 03:52:00,SystemResetWarning,0837.2,5.00,000.00,024.9,023.6,000.0,033.4,026.1,8.5,0000.0,0001.78,0004.32,0001.25
2023-12-18 03:53:00,SystemResetWarning,0837.1,5.00,000.00,024.8,023.6,000.0,033.3,026.1,8.5,0000.0,0001.82,0004.36,0001.26
2023-12-18 03:54:00,SystemResetWarning,0837.1,5.00,000.00,024.8,023.6,000.0,033.3,026.1,8.5,0000.0,0001.81,0004.30,0001.26
2023-12-18 03:55:00,SystemResetWarning,0837.1,5.00,000.00,024.8,023.5,000.0,033.3,026.1,8.6,0000.0,0001.80,0004.33,0001.26
2023-12-18 03:56:00,SystemResetWarning,0837.1,5.00,000.00,024.8,023.5,000.0,033.3,026.1,8.5,0000.0,0001.74,0004.04,0001.27
2023-12-18 03:57:00,SystemResetWarning,0837.0,5.00,000.00,024.8,023.5,000.0,033.3,026.1,8.5,0000.0,0001.75,0004.04,0001.27
2023-12-18 03:58:00,SystemResetWarning,0837.0,5.00,000.00,024.7,023.5,000.0,033.3,026.1,8.6,0000.0,0001.71,0003.23,0001.28
2023-12-18 03:59:00,SystemResetWarning,0837.0,4.99,000.00,024.7,023.5,000.0,033.2,026.1,8.6,0000.0,0001.72,0002.98,0001.29
